Location: Newark
(7.0858°N, 171.3717°E)
Time: 14:41:51
(UTC+00:00)

Courier 1B Rocket - Pass Details

Date: 28 November 2020
Orbit: 920 x 1202 km, 28.2° (Epoch: 20 January)

Event Time Altitude Azimuth Distance (km) Brightness Sun altitude
Rises 13:21:36 0° 219° (SW) 3,858 - -69.8°
Reaches altitude 10° 13:24:38 10° 208° (SSW) 2,948 - -69.3°
Maximum altitude 13:30:56 31° 149° (SSE) 1,886 - -68.1°
Drops below altitude 10° 13:37:31 10° 90° (E) 3,094 - -66.9°
Sets 13:40:46 0° 80° (E) 4,077 - -66.3°
